Flag for Portugal Weather past 2 weeks in Coimbra, Portugal

Now
72 °F

Clear.


Feels Like: 72 °F
Forecast: 60 / 82 °F
Wind: 1 mph from North

Location: Porto / Pedras Rubras

Current Time: Oct 20, 2014 at 10:22:08 PM

Latest Report: Oct 20, 2014 at 9:30 PM


Visibility: 10 mi

Pressure: 30.12 "Hg

Humidity: 78%

Dew point: 64 °F

Location of CoimbraLocation

Historic Weather in Coimbra — Graph

°F

Coimbra temperature yesterday

Maximum temperature yesterday: 84 °F (at 4:30 PM)
Minimum temperature yesterday: 63 °F (at 12:30 AM)
Average temperature yesterday: 70 °F

Past Weeks' High & Low Weather Summary

 TemperatureHumidityPressure
High84 °F (Oct 19, 4:30 PM)100% (Oct 6, 3:30 PM)30.12 "Hg (Oct 6, 3:30 PM)
Low52 °F (Oct 14, 2:00 AM)43% (Oct 20, 1:30 PM)29.56 "Hg (Oct 12, 4:00 AM)
Average65 °F88%29.86 "Hg
* Reported Oct 5 9:00 PM — Oct 20 9:00 PM, Coimbra, Weather by CustomWeather, © 2014

Note: Actual official high and low records may vary slightly from our data, if they occured in-between our weather recording intervals... More about our weather records

Advertising

Coimbra weather history for previous 24 hours

 ConditionsComfort  
Time TempWeatherWind HumidityBarometerVisibility
9:00 PM
Oct 20
70 °FClear.2 mph88%30.12 "Hg10 mi
8:30 PM70 °FClear.3 mph88%30.12 "Hg10 mi
8:00 PM72 °FClear.2 mph88%30.12 "Hg10 mi
7:30 PM72 °FPassing clouds.5 mph88%30.09 "HgN/A
7:00 PM73 °FSunny.2 mph78%30.09 "Hg10 mi
6:30 PM75 °FSunny.5 mph74%30.09 "Hg10 mi
6:00 PM77 °FPassing clouds.5 mph74%30.09 "HgN/A
5:30 PM79 °FSunny.5 mph65%30.09 "Hg10 mi
5:00 PM79 °FSunny.3 mph70%30.09 "Hg10 mi
4:30 PM79 °FSunny.2 mph65%30.09 "Hg10 mi
4:00 PM81 °FSunny.7 mph62%30.09 "Hg10 mi
3:30 PM82 °FSunny.3 mph62%30.09 "Hg10 mi
3:00 PM84 °FPassing clouds.3 mph55%30.09 "HgN/A
2:30 PM82 °FPassing clouds.3 mph58%30.09 "HgN/A
2:00 PM81 °FPassing clouds.5 mph62%30.09 "HgN/A
1:30 PM84 °FPassing clouds.3 mph43%30.09 "HgN/A
1:00 PM82 °FPassing clouds.7 mph48%30.12 "HgN/A
12:30 PM81 °FPassing clouds.7 mph51%30.12 "HgN/A
12:00 PM79 °FSunny.13 mph58%30.09 "Hg10 mi
11:30 AM79 °FPassing clouds.9 mph58%30.09 "HgN/A
11:00 AM77 °FSunny.9 mph61%30.09 "Hg10 mi
10:30 AM75 °FPassing clouds.7 mph61%30.09 "HgN/A
10:00 AM73 °FSunny.7 mph65%30.09 "Hg10 mi
9:30 AM70 °FPassing clouds.6 mph73%30.09 "HgN/A
9:00 AM68 °FPassing clouds.7 mph73%30.07 "HgN/A
8:30 AM66 °FClear.6 mph73%30.07 "Hg10 mi
8:00 AM64 °FClear.7 mph78%30.07 "Hg10 mi
7:30 AM66 °FClear.6 mph73%30.07 "Hg10 mi
7:00 AM66 °FPassing clouds.6 mph73%30.04 "HgN/A
6:30 AM68 °FPassing clouds.7 mph69%30.04 "HgN/A
6:00 AM64 °FPassing clouds.5 mph83%30.04 "HgN/A
4:00 AM66 °FClear.6 mph78%30.04 "Hg10 mi
3:30 AM66 °FClear.6 mph78%30.04 "Hg10 mi
3:00 AM66 °FClear.5 mph78%30.04 "Hg10 mi
2:30 AM68 °FClear.5 mph78%30.04 "Hg10 mi
2:00 AM68 °FClear.5 mph73%30.04 "Hg10 mi
1:30 AM68 °FClear.5 mph78%30.04 "Hg10 mi
1:00 AM68 °FPassing clouds.5 mph78%30.04 "HgN/A
12:30 AM70 °FClear.7 mph73%30.04 "Hg10 mi
12:00 AM70 °FClear.7 mph73%30.04 "Hg10 mi
11:30 PM
Oct 19
68 °FPassing clouds.7 mph83%30.04 "HgN/A
11:00 PM68 °FClear.8 mph83%30.04 "Hg10 mi
10:30 PM70 °FClear.9 mph78%30.04 "Hg10 mi
10:00 PM66 °FPassing clouds.5 mph94%30.04 "HgN/A
Weather by CustomWeather, © 2014

See weather overviewHow to use our weather pages